This demonstration page uses our WeatherBlox Daily Observations layout. Learn more.

Hourly Observations for December 3, 2018

Temp ( °F °C ) Dew Point ( °F °C ) Humidity (%) Winds ( mph kmh ) Pressure ( in mb ) Visibility ( mi km ) Precip ( " mm )
12:15 am 00:15 Cloudy with Fog 48 9 48 9 100 100 Calm 29.62 1003 0.25 0.402336 0 0
12:35 am 00:35 Cloudy with Fog 46 8 46 8 100 100 Calm 29.65 1004 0.25 0.402336 0 0
12:55 am 00:55 Cloudy with Fog 46 8 46 8 100 100 Calm 29.65 1004 0 0 0 0
1:15 am 01:15 Cloudy with Fog 45 7 45 7 100 100 SSW 3 6 29.65 1004 0.25 0.402336 0 0
1:35 am 01:35 Cloudy with Fog 43 6 43 6 100 100 SW 5 7 29.68 1005 0.5 0.804672 0 0
1:55 am 01:55 Cloudy with Fog 43 6 43 6 100 100 SW 5 7 29.68 1005 0.5 0.804672 0 0
2:15 am 02:15 Clear with Mist and Fog 43 6 43 6 100 100 SW 5 7 29.68 1005 5 8.04672 0 0
2:35 am 02:35 Clear with Mist and Fog 43 6 43 6 100 100 SW 5 7 29.68 1005 3 4.828032 0 0
2:55 am 02:55 Mostly Cloudy with Mist and Fog 41 5 41 5 100 100 SW 7 11 29.68 1005 1.25 2.01168 0 0
3:15 am 03:15 Clear 45 7 45 7 100 100 SSW 5 7 29.65 1004 10 16.09344 0 0
3:35 am 03:35 Clear 45 7 45 7 100 100 WSW 6 9 29.65 1004 10 16.09344 0 0
3:55 am 03:55 Clear 43 6 43 6 100 100 WSW 7 11 29.71 1006 10 16.09344 0 0
4:15 am 04:15 Clear 43 6 43 6 100 100 Calm 29.71 1006 10 16.09344 0 0
4:35 am 04:35 Clear 45 7 45 7 100 100 Calm 29.68 1005 10 16.09344 0 0
4:55 am 04:55 Clear 43 6 43 6 100 100 NNW 3 6 29.74 1007 10 16.09344 0 0
5:15 am 05:15 Clear 45 7 45 7 100 100 NW 9 15 29.71 1006 10 16.09344 0 0
5:35 am 05:35 Clear 45 7 43 6 93 93 NW 12 19 29.71 1006 10 16.09344 0 0
5:55 am 05:55 Clear 45 7 43 6 93 93 NW 12 19 29.71 1006 10 16.09344 0 0
6:15 am 06:15 Clear 45 7 43 6 93 93 NW 10 17 29.71 1006 10 16.09344 0 0
6:35 am 06:35 Clear 46 8 41 5 82 82 WNW 8 13 29.71 1006 10 16.09344 0 0
6:55 am 06:55 Clear 46 8 41 5 82 82 WNW 8 13 29.71 1006 10 16.09344 0 0
7:15 am 07:15 Sunny 46 8 41 5 82 82 undefined N/A 29.74 1007 10 16.09344 0 0
7:35 am 07:35 Sunny 45 7 41 5 87 87 S 5 7 29.74 1007 10 16.09344 0 0
7:55 am 07:55 Sunny 45 7 41 5 87 87 WSW 3 6 29.8 1009 10 16.09344 0 0
8:15 am 08:15 Sunny 45 7 41 5 87 87 Calm 29.8 1009 10 16.09344 0 0
8:35 am 08:35 Sunny 46 8 43 6 87 87 S 3 6 29.77 1008 10 16.09344 0 0
8:55 am 08:55 Sunny 50 10 43 6 76 76 WNW 3 6 29.77 1008 10 16.09344 0 0
9:15 am 09:15 Sunny 52 11 39 4 62 62 WNW 10 17 29.77 1008 10 16.09344 0 0
9:35 am 09:35 Sunny 52 11 37 3 58 58 WNW 15 24 29.77 1008 10 16.09344 0 0
9:55 am 09:55 Sunny 52 11 37 3 58 58 NNW 12 19 29.77 1008 10 16.09344 0 0
10:15 am 10:15 Sunny 54 12 39 4 58 58 WNW 12 19 29.77 1008 10 16.09344 0 0
10:35 am 10:35 Sunny 54 12 39 4 58 58 WNW 9 15 29.77 1008 10 16.09344 0 0
10:55 am 10:55 Sunny 54 12 37 3 54 54 WNW 18 30 29.77 1008 10 16.09344 0 0
11:15 am 11:15 Sunny 55 13 39 4 55 55 WNW 10 17 29.77 1008 10 16.09344 0 0
11:35 am 11:35 Sunny 55 13 37 3 51 51 WNW 17 28 29.77 1008 10 16.09344 0 0
11:55 am 11:55 Sunny 55 13 37 3 51 51 WNW 14 22 29.77 1008 10 16.09344 0 0
12:15 pm 12:15 Partly Cloudy 55 13 37 3 51 51 NNW 17 28 29.74 1007 10 16.09344 0 0
12:35 pm 12:35 Partly Cloudy 55 13 39 4 55 55 NNW 16 26 29.74 1007 10 16.09344 0 0
12:55 pm 12:55 Sunny 55 13 39 4 55 55 NNW 14 22 29.74 1007 10 16.09344 0 0
1:15 pm 13:15 Sunny 55 13 39 4 55 55 N 12 19 29.74 1007 10 16.09344 0 0
1:35 pm 13:35 Sunny 55 13 41 5 59 59 NNW 17 28 29.74 1007 10 16.09344 0 0
1:55 pm 13:55 Sunny 54 12 39 4 58 58 NNW 14 22 29.74 1007 10 16.09344 0 0
2:15 pm 14:15 Partly Cloudy 54 12 39 4 58 58 NNW 13 20 29.74 1007 10 16.09344 0 0
2:35 pm 14:35 Partly Cloudy 54 12 39 4 58 58 NNW 12 19 29.74 1007 10 16.09344 0 0
2:55 pm 14:55 Sunny 54 12 39 4 58 58 NNW 15 24 29.74 1007 10 16.09344 0 0
3:15 pm 15:15 Sunny 54 12 37 3 54 54 NNW 15 24 29.77 1008 10 16.09344 0 0
3:35 pm 15:35 Sunny 52 11 39 4 62 62 N 13 20 29.77 1008 10 16.09344 0 0
3:55 pm 15:55 Partly Cloudy 52 11 39 4 62 62 N 9 15 29.8 1009 10 16.09344 0 0
4:15 pm 16:15 Mostly Cloudy 50 10 39 4 67 67 NNW 13 20 29.8 1009 10 16.09344 0 0
4:35 pm 16:35 Mostly Cloudy 50 10 37 3 62 62 WNW 12 19 29.83 1010 10 16.09344 0 0
4:55 pm 16:55 Partly Cloudy 48 9 37 3 66 66 NW 12 19 29.83 1010 10 16.09344 0 0
5:15 pm 17:15 Partly Cloudy 46 8 36 2 66 66 NNW 9 15 29.83 1010 10 16.09344 0 0
5:35 pm 17:35 Clear 46 8 36 2 66 66 NNW 13 20 29.83 1010 10 16.09344 0 0
5:55 pm 17:55 Clear 46 8 36 2 66 66 NW 12 19 29.83 1010 10 16.09344 0 0
6:15 pm 18:15 Clear 46 8 34 1 62 62 NW 17 28 29.83 1010 10 16.09344 0 0
6:35 pm 18:35 Clear 46 8 34 1 62 62 NW 14 22 29.88 1012 10 16.09344 0 0
6:55 pm 18:55 Clear 46 8 34 1 62 62 NW 20 31 29.88 1012 10 16.09344 0 0
7:15 pm 19:15 Mostly Cloudy 46 8 34 1 62 62 WNW 13 20 29.88 1012 10 16.09344 0 0
7:35 pm 19:35 Mostly Cloudy 48 9 34 1 58 58 W 7 11 29.85 1011 10 16.09344 0 0
7:55 pm 19:55 Cloudy 46 8 34 1 62 62 WSW 5 7 29.88 1012 10 16.09344 0 0
8:15 pm 20:15 Partly Cloudy 45 7 34 1 66 66 WNW 9 15 29.91 1013 10 16.09344 0 0
8:35 pm 20:35 Clear 45 7 34 1 66 66 NW 9 15 29.91 1013 10 16.09344 0 0
8:55 pm 20:55 Clear 45 7 34 1 66 66 NW 6 9 29.91 1013 10 16.09344 0 0
9:15 pm 21:15 Partly Cloudy 43 6 34 1 71 71 NNW 7 11 29.88 1012 10 16.09344 0 0
9:35 pm 21:35 Partly Cloudy 43 6 34 1 71 71 NW 6 9 29.91 1013 10 16.09344 0 0
9:55 pm 21:55 Partly Cloudy 45 7 34 1 66 66 NW 14 22 29.91 1013 10 16.09344 0 0
10:15 pm 22:15 Mostly Cloudy 45 7 36 2 71 71 NW 13 20 29.91 1013 10 16.09344 0 0
10:35 pm 22:35 Mostly Cloudy 45 7 36 2 71 71 NW 13 20 29.91 1013 10 16.09344 0 0
10:55 pm 22:55 Partly Cloudy 45 7 36 2 71 71 NW 9 15 29.91 1013 10 16.09344 0 0
11:15 pm 23:15 Clear 45 7 36 2 71 71 WNW 8 13 29.91 1013 10 16.09344 0 0
11:35 pm 23:35 Clear 45 7 36 2 71 71 NW 8 13 29.91 1013 10 16.09344 0 0
11:55 pm 23:55 Partly Cloudy 45 7 36 2 71 71 NW 10 17 29.91 1013 10 16.09344 0 0

Powered by AerisWeather